Weather History for Dallas/Ft Worth, TX

Change the Weather History Date:

Wednesday, July 11, 2012

  Actual Average Record
Temperature  
Mean Temperature 85 °F 85 °F  
Max Temperature 96 °F 95 °F 107 °F (1980)
Min Temperature 73 °F 75 °F 59 °F (1905)
Degree Days  
Heating Degree Days 0 0  
Month to date heating degree days 0 0  
Since 1 June heating degree days 0 0  
Since 1 July heating degree days 0 0  
Cooling Degree Days 20 20  
Month to date cooling degree days 237 215  
Year to date cooling degree days 1509 1128  
Since 1 June cooling degree days 822 706  
Growing Degree Days 34 (Base 50)    
Moisture  
Dew Point 67 °F    
Average Humidity 59    
Maximum Humidity 87    
Minimum Humidity 31    
Precipitation  
Precipitation 0.00 in 0.08 in 2.10 in (1973)
Month to date precipitation 0.07 0.98  
Year to date precipitation 22.59 21.02  
Sea Level Pressure  
Sea Level Pressure 29.90 in    
Wind  
Wind Speed 8 mph (NE)    
Max Wind Speed 16 mph    
Max Gust Speed 21 mph    
Visibility 10 miles    
Events      
T = Trace of Precipitation, MM = Missing Value Source: NWS Daily Summary

Daily Weather History Graph

Daily Weather History Graph

Search for Another Location

Airport:

Trip Planner

Search our weather history database for the weather conditions in past years. The results will help you decide how hot, cold, wet, or windy it might be!

Date:

Astronomy

Jul. 11, 2012 Rise Set
Actual Time 6:28 AM CDT 8:38 PM CDT
Civil Twilight 6:00 AM CDT 9:06 PM CDT
Nautical Twilight 5:25 AM CDT 9:41 PM CDT
Astronomical Twilight 4:48 AM CDT 10:18 PM CDT
Moon 12:53 AM CDT (7/11) 2:22 PM CDT (7/11)
Length of Visible Light 15h 06m
Length of Day
14h 09m
Last Quarter, 44% of the Moon is Illuminated
Jul 11
Last Quarter
Jul 18
New
Jul 26
First Quarter
Aug 1
Full
Aug 9
Last Quarter

Hourly Weather History & Observations

Time (CDT) Temp. Heat Index Dew Point Humidity Pressure Visibility Wind Dir Wind Speed Gust Speed Precip Events Conditions
12:53 AM 77.0 °F - 69.1 °F 76% 29.91 in 10.0 mi Calm Calm - N/A   Mostly Cloudy
1:53 AM 77.0 °F - 69.1 °F 76% 29.90 in 10.0 mi North 8.1 mph - N/A   Mostly Cloudy
2:53 AM 75.9 °F - 68.0 °F 76% 29.90 in 10.0 mi North 3.5 mph - N/A   Mostly Cloudy
3:53 AM 73.9 °F - 68.0 °F 82% 29.89 in 10.0 mi North 6.9 mph - N/A   Scattered Clouds
4:53 AM 73.9 °F - 66.9 °F 79% 29.89 in 10.0 mi North 6.9 mph - N/A   Scattered Clouds
5:53 AM 73.0 °F - 68.0 °F 84% 29.91 in 10.0 mi NNE 6.9 mph - N/A   Scattered Clouds
6:53 AM 73.9 °F - 69.1 °F 85% 29.91 in 10.0 mi NNE 9.2 mph - N/A   Partly Cloudy
7:53 AM 75.9 °F - 70.0 °F 82% 29.93 in 10.0 mi NNE 6.9 mph - N/A   Partly Cloudy
8:53 AM 79.0 °F - 71.1 °F 77% 29.94 in 10.0 mi NNE 8.1 mph - N/A   Scattered Clouds
9:53 AM 82.0 °F 86.3 °F 71.1 °F 69% 29.95 in 10.0 mi North 9.2 mph - N/A   Scattered Clouds
10:53 AM 86.0 °F 91.5 °F 71.1 °F 61% 29.96 in 10.0 mi NE 10.4 mph - N/A   Mostly Cloudy
11:53 AM 87.1 °F 90.6 °F 68.0 °F 53% 29.95 in 10.0 mi NNE 6.9 mph - N/A   Mostly Cloudy
12:53 PM 90.0 °F 93.6 °F 68.0 °F 48% 29.93 in 10.0 mi NNE 11.5 mph - N/A   Mostly Cloudy
1:53 PM 91.9 °F 95.4 °F 66.9 °F 44% 29.90 in 10.0 mi NNE 6.9 mph - N/A   Mostly Cloudy
2:53 PM 91.9 °F 94.1 °F 64.9 °F 41% 29.88 in 10.0 mi NNE 16.1 mph - N/A   Mostly Cloudy
3:53 PM 93.9 °F 95.2 °F 63.0 °F 36% 29.86 in 10.0 mi NE 10.4 mph - N/A   Scattered Clouds
4:53 PM 95.0 °F 95.6 °F 62.1 °F 33% 29.85 in 10.0 mi NE 13.8 mph 20.7 mph N/A   Scattered Clouds
5:53 PM 95.0 °F 95.2 °F 61.0 °F 32% 29.85 in 10.0 mi NNE 11.5 mph - N/A   Scattered Clouds
6:53 PM 93.0 °F 93.0 °F 61.0 °F 34% 29.85 in 10.0 mi NE 13.8 mph 20.7 mph N/A   Scattered Clouds
7:53 PM 91.0 °F 90.9 °F 61.0 °F 36% 29.85 in 10.0 mi East 6.9 mph - N/A   Scattered Clouds
8:53 PM 88.0 °F 88.7 °F 63.0 °F 43% 29.86 in 10.0 mi East 6.9 mph - N/A   Scattered Clouds
9:53 PM 86.0 °F 86.6 °F 62.6 °F 45% 29.91 in 10.0 mi East 5.8 mph - N/A   Scattered Clouds
10:53 PM 82.0 °F 85.9 °F 70.0 °F 67% 29.90 in 10.0 mi SSE 12.7 mph - N/A   Scattered Clouds
11:53 PM 80.1 °F 83.2 °F 70.0 °F 71% 29.91 in 10.0 mi SE 3.5 mph - N/A   Scattered Clouds